Weather History for Clarion, IA

Change the Weather History Date:

Thursday, October 11, 2012

  Actual Average Record
Temperature  
Mean Temperature 42 °F -  
Max Temperature 51 °F 63 °F 84 °F (1960)
Min Temperature 32 °F 38 °F 14 °F (1987)
Degree Days  
Heating Degree Days 23    
Moisture  
Dew Point 28 °F    
Average Humidity 51    
Maximum Humidity 66    
Minimum Humidity 40    
Precipitation  
Precipitation 0.00 in - - ()
Sea Level Pressure  
Sea Level Pressure 30.12 in    
Wind  
Wind Speed 11 mph (NW)    
Max Wind Speed 18 mph    
Max Gust Speed 24 mph    
Visibility 10 miles    
Events      
Averages and records for this station are not official NWS values.
T = Trace of Precipitation, MM = Missing Value Source: NWS Daily Summary

Daily Weather History Graph

Daily Weather History Graph

Search for Another Location

Airport:

Trip Planner

Search our weather history database for the weather conditions in past years. The results will help you decide how hot, cold, wet, or windy it might be!

Date:

Astronomy

Oct. 11, 2012 Rise Set
Actual Time 7:24 AM CDT 6:38 PM CDT
Civil Twilight 6:55 AM CDT 7:06 PM CDT
Nautical Twilight 6:23 AM CDT 7:39 PM CDT
Astronomical Twilight 5:50 AM CDT 8:12 PM CDT
Moon 2:57 AM CDT (10/11) 4:19 PM CDT (10/11)
Length of Visible Light 12h 10m
Length of Day
11h 14m
Waning Crescent, 18% of the Moon is Illuminated
Oct 11
Waning Crescent
Oct 15
New
Oct 21
First Quarter
Oct 29
Full
Nov 6
Last Quarter

Hourly Weather History & Observations

Time (CDT) Temp. Windchill Dew Point Humidity Pressure Visibility Wind Dir Wind Speed Gust Speed Precip Events Conditions
12:15 AM 39.2 °F 32.5 °F 26.6 °F 61% 29.98 in 10.0 mi South 10.4 mph - N/A   Clear
12:35 AM 39.2 °F 33.0 °F 26.6 °F 61% 29.98 in 10.0 mi South 9.2 mph - N/A   Clear
12:55 AM 39.2 °F 32.5 °F 28.4 °F 65% 29.99 in 10.0 mi South 10.4 mph - N/A   Clear
1:15 AM 41.0 °F 34.7 °F 28.4 °F 61% 29.98 in 10.0 mi South 10.4 mph - N/A   Clear
1:35 AM 44.6 °F 37.8 °F 28.4 °F 53% 29.97 in 10.0 mi South 15.0 mph - N/A   Clear
1:55 AM 46.4 °F 40.1 °F 28.4 °F 50% 29.97 in 10.0 mi South 15.0 mph - N/A   Clear
2:15 AM 46.4 °F 40.1 °F 28.4 °F 50% 29.97 in 10.0 mi SSW 15.0 mph - N/A   Clear
2:55 AM 44.6 °F 38.4 °F 28.4 °F 53% 29.97 in 10.0 mi SSW 12.7 mph - N/A   Clear
3:15 AM 44.6 °F 38.4 °F 28.4 °F 53% 29.97 in 10.0 mi SSW 12.7 mph 17.3 mph N/A   Clear
3:35 AM 44.6 °F 38.4 °F 28.4 °F 53% 29.97 in 10.0 mi South 12.7 mph - N/A   Clear
3:55 AM 44.6 °F 38.8 °F 28.4 °F 53% 29.97 in 10.0 mi South 11.5 mph - N/A   Clear
4:15 AM 44.6 °F 38.8 °F 28.4 °F 53% 29.97 in 10.0 mi SSW 11.5 mph - N/A   Clear
4:35 AM 42.8 °F 37.5 °F 28.4 °F 57% 29.97 in 10.0 mi South 9.2 mph - N/A   Clear
4:55 AM 42.8 °F 37.0 °F 28.4 °F 57% 29.97 in 10.0 mi South 10.4 mph - N/A   Clear
5:15 AM 42.8 °F 37.5 °F 30.2 °F 61% 29.97 in 10.0 mi South 9.2 mph - N/A   Clear
5:35 AM 42.8 °F 36.6 °F 30.2 °F 61% 29.98 in 10.0 mi South 11.5 mph - N/A   Clear
5:55 AM 42.8 °F 37.0 °F 30.2 °F 61% 29.97 in 10.0 mi South 10.4 mph - N/A   Clear
6:15 AM 44.6 °F 38.8 °F 30.2 °F 57% 29.98 in 10.0 mi SSW 11.5 mph - N/A   Clear
6:35 AM 44.6 °F 38.4 °F 30.2 °F 57% 29.98 in 10.0 mi SSW 12.7 mph - N/A   Clear
6:55 AM 44.6 °F 39.7 °F 30.2 °F 57% 29.99 in 10.0 mi SW 9.2 mph - N/A   Clear
7:15 AM 44.6 °F 39.2 °F 30.2 °F 57% 29.99 in 10.0 mi SSW 10.4 mph - N/A   Clear
7:35 AM 44.6 °F 40.2 °F 30.2 °F 57% 30.01 in 10.0 mi SW 8.1 mph - N/A   Clear
7:55 AM 42.8 °F 39.3 °F 32.0 °F 66% 30.03 in 10.0 mi West 5.8 mph - N/A   Clear
8:15 AM 44.6 °F 42.2 °F 32.0 °F 61% 30.03 in 10.0 mi WSW 4.6 mph - N/A   Clear
8:35 AM 46.4 °F 42.9 °F 32.0 °F 57% 30.03 in 10.0 mi WSW 6.9 mph - N/A   Clear
8:55 AM 46.4 °F 42.9 °F 30.2 °F 53% 30.04 in 10.0 mi SW 6.9 mph - N/A   Clear
9:15 AM 48.2 °F - 30.2 °F 50% 30.04 in 10.0 mi WSW 8.1 mph - N/A   Clear
9:35 AM 50.0 °F - 30.2 °F 47% 30.06 in 10.0 mi West 10.4 mph - N/A   Clear
9:55 AM 51.8 °F - 30.2 °F 44% 30.07 in 10.0 mi West 13.8 mph - N/A   Clear
10:15 AM 51.8 °F - 30.2 °F 44% 30.07 in 10.0 mi WNW 11.5 mph 16.1 mph N/A   Clear
10:35 AM 51.8 °F - 30.2 °F 44% 30.08 in 10.0 mi NW 13.8 mph - N/A   Clear
10:55 AM 51.8 °F - 30.2 °F 44% 30.09 in 10.0 mi NNW 17.3 mph - N/A   Clear
11:15 AM 51.8 °F - 30.2 °F 44% 30.10 in 10.0 mi North 17.3 mph - N/A   Clear
11:35 AM 51.8 °F - 30.2 °F 44% 30.12 in 10.0 mi North 16.1 mph 20.7 mph N/A   Clear
11:55 AM 51.8 °F - 30.2 °F 44% 30.11 in 10.0 mi North 18.4 mph 21.9 mph N/A   Clear
12:15 PM 51.8 °F - 30.2 °F 44% 30.13 in 10.0 mi North 17.3 mph 23.0 mph N/A   Clear
12:55 PM 51.8 °F - 32.0 °F 47% 30.14 in 10.0 mi North 15.0 mph 24.2 mph N/A   Clear
1:15 PM 51.8 °F - 33.8 °F 50% 30.14 in 10.0 mi North 16.1 mph - N/A   Clear
1:35 PM 51.8 °F - 32.0 °F 47% 30.14 in 10.0 mi North 18.4 mph 21.9 mph N/A   Clear
1:55 PM 48.2 °F - 30.2 °F 50% 30.14 in 10.0 mi North 16.1 mph 23.0 mph N/A   Clear
2:15 PM 51.8 °F - 30.2 °F 44% 30.14 in 10.0 mi North 17.3 mph 24.2 mph N/A   Clear
2:35 PM 50.0 °F - 28.4 °F 43% 30.15 in 10.0 mi North 16.1 mph 21.9 mph N/A   Clear
2:55 PM 51.8 °F - 28.4 °F 41% 30.15 in 10.0 mi North 16.1 mph - N/A   Clear
3:15 PM 50.0 °F - 28.4 °F 43% 30.19 in 10.0 mi North 13.8 mph - N/A   Clear
3:55 PM 48.2 °F - 26.6 °F 43% 30.21 in 10.0 mi North 10.4 mph - N/A   Clear
4:15 PM 48.2 °F - 24.8 °F 40% 30.20 in 10.0 mi North 18.4 mph - N/A   Clear
4:35 PM 48.2 °F - 26.6 °F 43% 30.21 in 10.0 mi North 12.7 mph 20.7 mph N/A   Clear
4:55 PM 48.2 °F - 26.6 °F 43% 30.22 in 10.0 mi North 11.5 mph 20.7 mph N/A   Clear
5:15 PM 48.2 °F - 26.6 °F 43% 30.22 in 10.0 mi North 13.8 mph - N/A   Clear
5:35 PM 48.2 °F - 26.6 °F 43% 30.21 in 10.0 mi North 13.8 mph - N/A   Scattered Clouds
5:55 PM 46.4 °F 41.1 °F 26.6 °F 46% 30.22 in 10.0 mi North 11.5 mph 17.3 mph N/A   Clear
6:15 PM 46.4 °F 41.5 °F 26.6 °F 46% 30.22 in 10.0 mi North 10.4 mph - N/A   Clear
6:35 PM 46.4 °F 41.5 °F 24.8 °F 43% 30.22 in 10.0 mi North 10.4 mph - N/A   Clear
6:55 PM 46.4 °F 41.9 °F 24.8 °F 43% 30.24 in 10.0 mi North 9.2 mph - N/A   Clear
7:15 PM 46.4 °F 41.1 °F 24.8 °F 43% 30.24 in 10.0 mi North 11.5 mph - N/A   Clear
7:35 PM 44.6 °F 39.2 °F 24.8 °F 46% 30.26 in 10.0 mi North 10.4 mph - N/A   Clear
7:55 PM 44.6 °F 40.2 °F 24.8 °F 46% 30.27 in 10.0 mi North 8.1 mph - N/A   Clear
8:15 PM 42.8 °F 38.6 °F 24.8 °F 49% 30.28 in 10.0 mi North 6.9 mph - N/A   Clear
8:35 PM 39.2 °F 35.0 °F 24.8 °F 56% 30.29 in 10.0 mi North 5.8 mph - N/A   Clear
8:55 PM 37.4 °F 32.8 °F 24.8 °F 60% 30.31 in 10.0 mi NNW 5.8 mph - N/A   Clear
9:15 PM 37.4 °F 34.9 °F 24.8 °F 60% 30.31 in 10.0 mi NNW 3.5 mph - N/A   Scattered Clouds
9:55 PM 39.2 °F 35.9 °F 23.0 °F 52% 30.33 in 10.0 mi North 4.6 mph - N/A   Overcast
10:15 PM 39.2 °F 34.2 °F 21.2 °F 49% 30.34 in 10.0 mi North 6.9 mph - N/A   Overcast
10:55 PM 35.6 °F 30.7 °F 21.2 °F 56% 30.35 in 10.0 mi North 5.8 mph - N/A   Clear
11:15 PM 35.6 °F 30.7 °F 21.2 °F 56% 30.35 in 10.0 mi NNW 5.8 mph - N/A   Clear
11:35 PM 33.8 °F 30.8 °F 21.2 °F 60% 30.36 in 10.0 mi NNW 3.5 mph - N/A   Clear
11:55 PM 32.0 °F - 21.2 °F 64% 30.37 in 10.0 mi Calm Calm - N/A   Clear